Weather History for Chevak, AK

Change the Weather History Date:

Monday, February 24, 2014

  Actual Average (PAHP) Record (PAHP)
Temperature  
Mean Temperature 29 °F -  
Max Temperature 32 °F 17 °F 39 °F (2014)
Min Temperature 26 °F 9 °F -16 °F (2012)
Degree Days  
Heating Degree Days 36    
Moisture  
Dew Point 30 °F    
Average Humidity 97    
Maximum Humidity 100    
Minimum Humidity 92    
Precipitation  
Precipitation 0.00 in - - ()
Sea Level Pressure  
Sea Level Pressure 29.79 in    
Wind  
Wind Speed 15 mph (ESE)    
Max Wind Speed 21 mph    
Max Gust Speed -    
Visibility 7 miles    
Events Snow    
Averages and records for this station are not official NWS values.
T = Trace of Precipitation, MM = Missing Value Source: NWS Daily Summary

Daily Weather History Graph

Daily Weather History Graph

Search for Another Location

Airport:

Trip Planner

Search our weather history database for the weather conditions in past years. The results will help you decide how hot, cold, wet, or windy it might be!

Date:

Astronomy

Feb. 24, 2014 Rise Set
Actual Time 9:18 AM AKST 7:13 PM AKST
Civil Twilight 8:33 AM AKST 7:58 PM AKST
Nautical Twilight 7:43 AM AKST 8:49 PM AKST
Astronomical Twilight 6:52 AM AKST 9:40 PM AKST
Moon 6:28 AM AKST (2/24) 1:30 PM AKST (2/24)
Length of Visible Light 11h 24m
Length of Day
9h 55m
Waning Crescent, 26% of the Moon is Illuminated
Feb 24
Waning Crescent
Feb 28
New
Mar 8
First Quarter
Mar 16
Full
Mar 23
Last Quarter

Hourly Weather History & Observations

Time (AKST) Temp. Windchill Dew Point Humidity Pressure Visibility Wind Dir Wind Speed Gust Speed Precip Events Conditions
12:01 AM 32.0 °F - 30.2 °F 93% 29.71 in 4.0 mi North - - 0.00 in Snow Light Snow
12:33 AM 32.0 °F - 30.2 °F 93% 29.72 in 6.0 mi North - - 0.00 in Snow Light Snow
12:41 AM 30.2 °F - 30.2 °F 100% 29.72 in 7.0 mi North - - 0.00 in Snow Light Snow
12:57 AM 30.9 °F - 30.9 °F 100% 29.73 in 7.0 mi North - - 0.00 in Snow Light Snow
1:57 AM 30.9 °F - 30.0 °F 96% 29.74 in 5.0 mi North - - 0.00 in Snow Light Snow
2:57 AM 30.9 °F - 30.9 °F 100% 29.75 in 5.0 mi North - - 0.00 in Snow Light Snow
3:32 AM 30.2 °F - 30.2 °F 100% 29.73 in 5.0 mi North - - 0.00 in Snow Light Snow
3:57 AM 30.9 °F - 30.9 °F 100% 29.75 in 5.0 mi North - - 0.00 in Snow Light Snow
4:34 AM 30.2 °F - 30.2 °F 100% 29.74 in 4.0 mi North - - 0.00 in Snow Light Snow
4:57 AM 30.9 °F - 30.9 °F 100% 29.75 in 5.0 mi North - - 0.00 in Snow Light Snow
5:40 AM 30.2 °F - 30.2 °F 100% 29.74 in 3.0 mi North - - 0.00 in Snow Light Snow
5:57 AM 30.9 °F - 30.9 °F 100% 29.75 in 4.0 mi North - - 0.00 in Snow Light Snow
6:01 AM 30.2 °F - 30.2 °F 100% 29.74 in 4.0 mi North - - 0.00 in Snow Light Snow
6:14 AM 30.2 °F - 30.2 °F 100% 29.74 in 6.0 mi North - - 0.00 in Snow Light Snow
6:17 AM 30.2 °F - 30.2 °F 100% 29.74 in 5.0 mi North - - 0.00 in Snow Light Snow
6:57 AM 30.9 °F - 30.9 °F 100% 29.76 in 4.0 mi North - - 0.00 in Snow Light Snow
7:24 AM 30.2 °F - 30.2 °F 100% 29.75 in 4.0 mi North - - 0.00 in Snow Light Snow
7:33 AM 30.2 °F - 30.2 °F 100% 29.75 in 4.0 mi North - - 0.00 in Snow Light Snow
7:57 AM 30.9 °F - 30.0 °F 96% 29.77 in 5.0 mi North - - 0.00 in Snow Light Snow
8:21 AM 30.2 °F - 30.2 °F 100% 29.76 in 6.0 mi North - - 0.00 in Snow Light Snow
8:23 AM 30.2 °F - 30.2 °F 100% 29.76 in 6.0 mi North - - 0.00 in Snow Light Snow
8:26 AM 30.2 °F - 30.2 °F 100% 29.76 in 7.0 mi North - - 0.00 in Snow Light Snow
8:29 AM 30.2 °F - 30.2 °F 100% 29.76 in 7.0 mi North - - 0.00 in Snow Light Snow
8:33 AM 30.2 °F - 30.2 °F 100% 29.76 in 7.0 mi North - - 0.00 in Snow Light Snow
8:48 AM 30.2 °F - 30.2 °F 100% 29.76 in 7.0 mi North - - 0.00 in Snow Light Snow
8:57 AM 30.9 °F - 30.0 °F 96% 29.77 in 8.0 mi North - - 0.00 in Snow Light Snow
9:02 AM 30.2 °F - 30.2 °F 100% 29.76 in 7.0 mi North - - 0.00 in Snow Light Snow
9:32 AM 30.2 °F - 30.2 °F 100% 29.76 in 5.0 mi North - - 0.00 in Snow Light Snow
9:57 AM 30.9 °F - 30.0 °F 96% 29.78 in 4.0 mi North - - 0.00 in Snow Light Snow
10:32 AM 30.2 °F - 30.2 °F 100% 29.78 in 5.0 mi North - - 0.00 in Snow Light Snow
10:49 AM 30.2 °F - 30.2 °F 100% 29.78 in 5.0 mi North - - 0.00 in Snow Light Snow
10:57 AM 30.9 °F - 30.0 °F 96% 29.79 in 6.0 mi North - - 0.00 in Snow Light Snow
11:03 AM 30.2 °F - 30.2 °F 100% 29.78 in 6.0 mi North - - 0.00 in Snow Light Snow
11:27 AM 30.2 °F - 30.2 °F 100% 29.79 in 7.0 mi North - - 0.00 in Snow Light Snow
11:57 AM 30.2 °F - 30.2 °F 100% 29.80 in 5.0 mi North - - 0.00 in Snow Light Snow
11:59 AM 30.9 °F - 30.0 °F 96% 29.81 in 5.0 mi North - - 0.00 in Snow Light Snow
12:18 PM 30.2 °F - 30.2 °F 100% 29.80 in 5.0 mi North - - 0.00 in Snow Light Snow
12:31 PM 30.2 °F - 30.2 °F 100% 29.80 in 5.0 mi North - - 0.00 in Snow Light Snow
12:53 PM 30.2 °F - 30.2 °F 100% 29.80 in 8.0 mi North - - 0.00 in   Overcast
12:57 PM 30.9 °F - 30.0 °F 96% 29.81 in 9.0 mi North - - 0.00 in   Overcast
1:44 PM 30.2 °F - 30.2 °F 100% 29.81 in 10.0 mi North - - N/A   Overcast
1:57 PM 32.0 °F - 30.0 °F 92% 29.82 in 10.0 mi North - - N/A   Overcast
3:57 PM 32.0 °F 26.4 °F 30.0 °F 92% 29.81 in 10.0 mi Variable 5.8 mph - N/A   Unknown
4:17 PM 32.0 °F 20.1 °F 30.2 °F 93% 29.81 in 10.0 mi ESE 19.6 mph - N/A   Overcast
4:53 PM 32.0 °F 19.8 °F 30.2 °F 93% 29.80 in 10.0 mi ESE 20.7 mph - N/A   Overcast
4:57 PM 32.0 °F 19.8 °F 30.2 °F 93% 29.81 in 10.0 mi ESE 20.7 mph - N/A   Overcast
4:59 PM 32.0 °F 20.1 °F 30.0 °F 92% 29.81 in 10.0 mi ESE 19.6 mph - N/A   Overcast
5:12 PM 32.0 °F 20.1 °F 30.2 °F 93% 29.81 in 10.0 mi ESE 19.6 mph - N/A   Overcast
5:57 PM 30.9 °F 19.4 °F 30.0 °F 96% 29.81 in 10.0 mi ESE 17.3 mph - N/A   Overcast
6:00 PM 30.2 °F 18.1 °F 30.2 °F 100% 29.81 in 10.0 mi ESE 18.4 mph - N/A   Overcast
6:57 PM 30.9 °F 19.8 °F 30.0 °F 96% 29.82 in 6.0 mi ESE 16.1 mph - 0.00 in Snow Light Snow
7:00 PM 30.2 °F 19.8 °F 30.2 °F 100% 29.82 in 6.0 mi ESE 13.8 mph - 0.00 in Snow Light Snow
7:57 PM 30.9 °F 19.8 °F 30.0 °F 96% 29.83 in 9.0 mi ESE 16.1 mph - 0.00 in Snow Light Snow
8:25 PM 30.2 °F 19.3 °F 28.4 °F 93% 29.83 in 9.0 mi East 15.0 mph - 0.00 in Snow Light Snow
8:39 PM 30.2 °F 19.3 °F 28.4 °F 93% 29.83 in 10.0 mi East 15.0 mph - 0.00 in   Overcast
8:57 PM 30.0 °F 18.7 °F 28.9 °F 96% 29.83 in 9.0 mi ESE 16.1 mph - 0.00 in Snow Light Snow
9:19 PM 30.2 °F 18.5 °F 28.4 °F 93% 29.84 in 9.0 mi East 17.3 mph - 0.00 in Snow Light Snow
9:57 PM 28.9 °F 16.9 °F 28.0 °F 96% 29.84 in 8.0 mi East 17.3 mph - 0.00 in Snow Light Snow
10:46 PM 28.4 °F 17.0 °F 26.6 °F 93% 29.84 in 8.0 mi East 15.0 mph - 0.00 in Snow Light Snow
10:57 PM 28.0 °F 16.1 °F 27.0 °F 96% 29.84 in 9.0 mi East 16.1 mph - 0.00 in Snow Light Snow
11:21 PM 28.4 °F 16.2 °F 26.6 °F 93% 29.84 in 9.0 mi East 17.3 mph - 0.00 in Snow Light Snow
11:24 PM 28.4 °F 16.2 °F 26.6 °F 93% 29.84 in 9.0 mi East 17.3 mph - 0.00 in Snow Light Snow
11:39 PM 26.6 °F 15.2 °F 26.6 °F 100% 29.85 in 7.0 mi East 13.8 mph - 0.00 in Snow Light Snow
11:57 PM 27.0 °F 14.7 °F 26.1 °F 96% 29.85 in 7.0 mi East 16.1 mph - 0.00 in Snow Light Snow